COSMOS 970 DEB, 64991

Orbit data source: Space-Track

COSMOS 970 DEB, 64991 is space debris in LEO originally from a launch on Wed, 21 Dec 1977 UTC launched from the Tyuratam Missile And Space Complex (TTMTR). Debris objects in space refer to the collection of defunct objects orbiting the Earth. Examples of debris include non-operational satellites, rocket bodies, and fragments generated from explosions, collisions, or faulty payload assembly.

Loading next visibility...
Identifier
64991, 1977-121DC
Orbit
LEO
Country
Flag of CISCIS
Related business
Manufacturer
Unknown
Mission
Spacecraft
Bus & Motor
Unknown
Mass
Unknown
Launch date (UTC)
1977-12-21 (48 years ago)
Launch vehicle
Unknown
Launch site
Tyuratam Missile And Space Complex (TTMTR)
Object type
Payload
Rocket body
Debris
Shape & HBR
Unknown shape, 0.1 m
Radar Cross Section
Small (<0.1 m²)

Expand to show TLE details & history
Last TLE update: 5 days ago

TLE from 5 days ago
0 COSMOS 970 DEB
1 64991U 77121DC  26166.57401303  .00000226  00000-0  24761-3 0  9994
2 64991  65.8062 228.4658 0112278  97.9517 263.4312 13.87827399629063
Epoch: 2026-06-15T13:46Z
TLE epoch observation values (Epoch: 2026-06-15T13:46:34.725Z)
Latitude
-0.00002°
Longitude
117.96265°
Altitude
948.555 km
Speed
7.373 km/s
True Right ascension
15h 13m 51s
True Declination
0° 00' 00"
Sunlit
Object was in full shadow at epoch
Visualization orbit readout
Latitude
Unknown
Longitude
Unknown
Altitude
Unknown
Speed
Unknown
Apparent Right ascension
Unknown
Apparent Declination
Unknown
Sunlit
N/A
Visualization observer readout
Local Sidereal Time
07:16:59
Azimuth
Unknown
Elevation
Unknown
Doppler factor
Unknown
Orbital elements
Apogee altitude
1,016.873 km
Perigee altitude
852.657 km
Semi-major axis
7,312.902 km
Eccentricity
0.01123
Inclination
65.8062°
RAAN
228.4658°
Arg. of periapsis
97.9517°
True anomaly
262.15519°
Mean anomaly
263.4312°
Eccentric anomaly
262.79298°
Mean motion
3.47063 °/min
Orbital period
103.73 mins
BSTAR
0.00024761
Loading maneuver chart data...
Computing Atmospheric mass density...
Loading historical data...
Loading historical data...
Loading historical data...
Loading historical data...
Loading historical data...
Loading historical data...
Loading historical data...

Documentation

Showing up to 5 results
|